Talkeetna, AK

2:02 AM AKDT on August 20, 2017 (GMT -0800)
Talkeetna

Weather History for PATK - June, 2013

Change the Weather History Date:

Friday, June 28, 2013

  Actual Average Record
Temperature  
Mean Temperature 62 °F -  
Max Temperature 68 °F 68 °F 86 °F (1997)
Min Temperature 57 °F 48 °F 35 °F (1973)
Degree Days  
Heating Degree Days 2    
Growing Degree Days 12 (Base 50)    
Moisture  
Dew Point 51 °F    
Average Humidity 74    
Maximum Humidity 83    
Minimum Humidity 61    
Precipitation  
Precipitation 0.00 in - - ()
Sea Level Pressure  
Sea Level Pressure 30.15 in    
Wind  
Wind Speed 4 mph (SW)    
Max Wind Speed 7 mph    
Max Gust Speed -    
Visibility 10 miles    
Events      
Averages and records for this station are not official NWS values.
T = Trace of Precipitation, MM = Missing Value Source: NWS Daily Summary

Daily Weather History Graph

Daily Weather History Graph

Search for Another Location

Airport or City:

Trip Planner

Search our weather history database for the weather conditions in past years. The results will help you decide how hot, cold, wet, or windy it might be!

Date:

Astronomy

Jun. 28, 2013 Rise Set
Actual Time 4:09 AM AKDT 11:57 PM AKDT
Civil Twilight 2:36 AM AKDT 1:31 AM AKDT
Nautical Twilight Sun does not set Sun does not set
Astronomical Twilight Sun does not set Sun does not set
Moon 12:45 AM AKDT (6/28) 12:53 PM AKDT (6/28)
Length of Visible Light 22h 55m
Length of Day
19h 47m
Waning Gibbous, 65% of the Moon is Illuminated
Jun 28
Waning Gibbous
Jun 29
Last Quarter
Jul 7
New
Jul 15
First Quarter
Jul 22
Full

Hourly Weather History & Observations

Time (AKDT) Temp. Dew Point Humidity Pressure Visibility Wind Dir Wind Speed Gust Speed Precip Events Conditions
12:53 AM 63.0 °F 53.1 °F 70% 30.06 in 10.0 mi Variable 4.6 mph - N/A   Overcast
1:53 AM 62.1 °F 52.0 °F 70% 30.08 in 10.0 mi South 6.9 mph - N/A   Overcast
2:53 AM 61.0 °F 51.1 °F 70% 30.10 in 10.0 mi SSW 5.8 mph - N/A   Overcast
3:53 AM 59.0 °F 50.0 °F 72% 30.11 in 10.0 mi SW 4.6 mph - N/A   Overcast
4:53 AM 59.0 °F 50.0 °F 72% 30.12 in 10.0 mi WSW 3.5 mph - N/A   Overcast
5:53 AM 59.0 °F 50.0 °F 72% 30.13 in 10.0 mi Calm Calm - N/A   Overcast
6:53 AM 57.9 °F 50.0 °F 75% 30.14 in 10.0 mi Calm Calm - N/A   Overcast
7:53 AM 57.9 °F 51.1 °F 78% 30.14 in 10.0 mi Calm Calm - N/A   Overcast
8:53 AM 57.9 °F 50.0 °F 75% 30.16 in 9.0 mi SW 3.5 mph - N/A   Overcast
9:53 AM 57.9 °F 51.1 °F 78% 30.16 in 10.0 mi Calm Calm - N/A   Overcast
10:34 AM 57.2 °F 50.0 °F 77% 30.16 in 10.0 mi WSW 3.5 mph - N/A   Overcast
10:50 AM 57.2 °F 50.0 °F 77% 30.16 in 10.0 mi SSW 3.5 mph - N/A   Overcast
10:53 AM 57.9 °F 50.0 °F 75% 30.17 in 10.0 mi SSW 4.6 mph - N/A   Overcast
11:53 AM 57.9 °F 51.1 °F 78% 30.17 in 9.0 mi Variable 4.6 mph - N/A   Overcast
12:26 PM 57.2 °F 51.8 °F 82% 30.16 in 10.0 mi SW 3.5 mph - N/A   Overcast
12:38 PM 57.2 °F 51.8 °F 82% 30.16 in 10.0 mi SSW 3.5 mph - N/A   Overcast
12:53 PM 59.0 °F 51.1 °F 75% 30.17 in 10.0 mi SW 3.5 mph - N/A   Overcast
1:13 PM 60.8 °F 51.8 °F 72% 30.17 in 10.0 mi WSW 3.5 mph - N/A   Overcast
1:53 PM 60.1 °F 51.1 °F 72% 30.18 in 10.0 mi Variable 4.6 mph - N/A   Overcast
2:44 PM 60.8 °F 51.8 °F 72% 30.17 in 10.0 mi SSW 4.6 mph - N/A   Overcast
2:53 PM 60.1 °F 51.1 °F 72% 30.17 in 10.0 mi SSW 4.6 mph - N/A   Overcast
3:01 PM 60.8 °F 51.8 °F 72% 30.16 in 10.0 mi SSW 4.6 mph - N/A   Overcast
3:53 PM 61.0 °F 51.1 °F 70% 30.17 in 10.0 mi SW 3.5 mph - N/A   Overcast
4:53 PM 62.1 °F 51.1 °F 67% 30.16 in 10.0 mi SSW 4.6 mph - N/A   Overcast
5:53 PM 61.0 °F 52.0 °F 72% 30.16 in 9.0 mi SSW 4.6 mph - N/A   Overcast
6:53 PM 61.0 °F 51.1 °F 70% 30.14 in 10.0 mi SSW 5.8 mph - N/A   Overcast
7:53 PM 60.1 °F 51.1 °F 72% 30.14 in 10.0 mi SSW 4.6 mph - N/A   Overcast
8:37 PM 59.0 °F 51.8 °F 77% 30.13 in 10.0 mi SSW 4.6 mph - N/A   Overcast
8:53 PM 59.0 °F 52.0 °F 78% 30.14 in 10.0 mi SSW 5.8 mph - N/A   Overcast
9:53 PM 57.9 °F 52.0 °F 81% 30.14 in 10.0 mi SW 3.5 mph - N/A   Overcast
10:53 PM 57.0 °F 51.1 °F 81% 30.14 in 10.0 mi SW 3.5 mph - N/A   Overcast
11:35 PM 57.2 °F 51.8 °F 82% 30.14 in 10.0 mi Calm Calm - N/A   Overcast
11:53 PM 57.0 °F 52.0 °F 83% 30.14 in 10.0 mi Calm Calm - N/A   Overcast